Wind_Speed
97 100 102 104 107 110 114 117 121 123 125 126 128 132 135 139 142 145 146 146 146 147 150 153 155 155 155 155 156 156 155 153 151 150 148 146 144 142 141 139 137 134 132 130 129 128 127 126 124 123 122 122 121 120 120 120 119 119 119 118 118 117 117 117 117 116 115 114 113 113 113 112 111 110
94 96 98 100 102 106 110 113 117 120 123 125 126 128 131 134 137 141 143 144 144 145 147 149 152 155 156 156 156 157 157 156 155 153 152 150 147 145 144 143 141 139 136 133 132 131 129 128 126 124 123 122 121 120 119 119 118 118 118 117 116 116 115 115 114 113 113 112 111 111 111 110 109 108
90 92 94 96 99 102 106 110 113 116 119 122 124 126 128 130 133 137 141 143 144 145 145 146 148 152 156 157 157 157 158 157 156 155 155 153 151 150 148 147 145 143 140 137 135 133 132 131 129 126 124 123 122 121 120 119 119 118 118 117 116 115 115 114 113 112 111 111 110 110 110 109 108 107
86 88 91 93 95 99 103 106 109 112 116 119 122 123 125 127 130 133 136 139 142 143 144 144 145 148 152 155 156 157 157 157 156 155 155 155 154 153 153 151 148 145 143 141 138 136 135 133 132 129 127 125 124 123 121 120 120 120 119 118 117 116 116 115 114 113 112 111 111 110 110 109 108 107
82 85 87 89 92 95 98 101 105 108 111 115 118 121 123 124 126 128 131 134 137 140 142 143 143 144 147 150 153 154 155 156 156 156 155 155 155 155 155 154 151 148 146 144 142 140 138 136 135 133 131 129 127 126 124 123 122 122 122 121 119 118 117 116 115 114 113 112 112 112 111 110 109 108
80 82 84 86 89 92 94 97 100 104 107 110 113 116 119 121 122 124 126 128 130 134 138 140 141 143 143 144 147 150 153 155 156 156 156 156 155 155 155 155 153 151 149 147 145 143 142 140 139 137 135 133 131 130 128 127 126 125 125 124 122 120 119 118 117 116 115 114 113 113 113 112 111 110
77 79 82 84 86 88 90 93 96 100 103 106 109 112 114 116 118 120 121 123 126 129 133 136 138 140 142 142 143 145 148 152 154 156 157 157 157 156 155 154 154 154 153 151 148 146 146 144 143 141 139 138 136 134 132 131 130 129 128 127 125 123 122 120 119 118 117 116 115 115 114 113 113 112
74 77 79 81 83 85 88 90 93 97 99 102 106 108 109 111 114 116 118 121 124 126 129 131 133 136 139 141 141 142 144 147 150 153 155 157 158 157 155 154 153 153 154 153 152 150 148 148 147 145 143 141 140 138 136 135 134 133 132 130 129 127 125 123 121 120 119 119 118 117 116 116 115 114
71 73 76 78 80 82 85 87 90 93 96 99 102 104 105 108 110 113 115 118 121 124 126 128 129 131 135 138 140 141 142 144 146 149 152 155 158 158 157 155 153 152 152 153 153 152 151 150 150 149 147 145 144 142 141 139 138 137 135 134 133 131 129 126 124 123 122 122 121 121 120 119 117 116
66 69 71 73 75 78 81 84 87 89 91 94 97 99 102 105 108 111 113 114 117 119 122 124 126 127 130 133 137 140 141 142 143 145 147 151 155 158 159 158 154 152 150 150 151 151 152 152 152 152 151 150 148 147 145 144 142 141 139 137 136 134 132 130 128 126 126 126 125 124 123 122 120 118
62 64 66 68 71 74 77 80 82 84 87 90 92 95 98 102 105 108 110 111 112 114 117 120 121 123 125 128 133 137 139 140 141 142 144 147 151 155 158 158 156 152 149 149 149 150 151 153 154 155 154 153 152 151 149 148 147 145 143 141 139 138 137 135 133 131 130 129 129 128 127 125 123 122
59 60 61 63 66 68 71 74 77 79 81 84 87 91 95 99 102 104 106 107 108 110 112 114 116 118 120 123 128 132 135 137 138 139 141 143 146 150 154 156 156 153 150 149 149 149 150 151 154 156 156 155 155 154 153 152 151 149 147 145 143 142 141 140 138 136 134 133 133 132 130 129 127 126
55 57 58 59 61 63 65 68 71 74 76 79 82 86 91 94 97 100 102 103 103 104 107 109 111 113 115 118 122 126 129 132 134 136 138 141 143 146 149 152 153 153 150 149 149 149 149 150 152 154 156 156 155 155 156 155 155 153 152 150 148 146 145 144 142 140 139 137 136 135 134 133 131 129
52 54 55 57 58 60 61 63 66 68 71 75 78 82 86 90 93 95 98 99 99 100 101 103 106 108 111 114 118 121 124 127 131 134 136 138 140 142 145 147 148 149 149 148 148 148 149 149 151 152 154 155 155 155 156 157 157 157 156 154 152 151 149 148 147 145 143 142 140 139 138 137 135 133
49 51 52 54 55 57 58 60 62 64 67 70 74 78 82 85 89 91 93 95 96 96 97 99 101 104 107 111 114 118 121 123 127 130 132 135 137 139 141 142 143 144 145 146 147 148 148 149 150 151 152 154 154 155 155 156 158 159 158 157 156 154 152 151 150 148 147 145 144 143 142 141 139 137
47 49 50 52 53 55 56 58 59 61 63 66 69 72 76 80 84 87 89 91 92 93 93 95 97 100 103 108 111 115 118 121 124 126 129 131 133 135 136 138 139 140 141 142 144 145 146 147 148 150 150 151 152 153 153 154 156 157 158 158 157 156 155 154 152 151 150 149 147 146 145 144 143 141
45 46 48 50 51 53 55 56 58 59 61 63 65 68 71 75 79 82 85 87 88 89 90 91 93 96 100 104 107 111 115 118 121 123 124 126 128 130 132 133 135 136 137 138 140 141 143 144 145 147 148 148 149 150 151 152 153 155 156 157 156 156 155 155 154 153 152 151 150 149 148 147 146 145
41 43 45 47 48 50 52 54 56 58 59 61 63 65 68 71 74 77 80 83 84 86 87 88 90 93 96 99 103 107 111 114 116 118 119 121 122 124 127 129 130 132 133 133 134 136 138 139 141 143 145 146 146 147 148 149 151 152 154 155 155 155 155 155 155 154 154 153 152 152 151 150 149 148
39 40 42 44 45 47 49 51 53 55 57 59 61 63 65 68 70 73 76 78 81 82 83 85 87 89 92 95 99 103 106 108 110 111 113 115 117 118 120 122 124 125 127 128 129 131 133 135 138 140 142 144 145 145 146 147 148 150 152 152 153 154 154 154 154 154 154 153 153 152 152 152 151 150
35 37 38 40 42 44 46 48 50 52 54 56 58 60 62 65 67 70 72 74 76 78 80 82 83 85 88 91 94 97 99 102 104 106 107 108 109 111 113 116 118 119 121 123 125 127 129 132 134 137 139 142 143 144 144 145 146 148 149 150 150 151 152 153 153 154 154 153 152 151 151 151 151 151
33 34 36 37 39 40 43 45 47 49 51 53 56 57 59 62 64 66 68 70 72 74 76 78 80 82 83 86 89 91 93 95 97 99 100 102 104 106 108 110 113 115 117 119 121 123 125 128 131 133 136 138 140 141 142 142 143 144 146 147 148 148 148 149 150 151 152 152 151 150 149 149 149 149
30 32 33 34 36 37 39 41 44 46 48 50 52 54 56 59 61 63 64 66 68 70 72 74 76 78 79 82 84 86 87 89 91 92 94 97 99 101 103 105 108 110 111 112 114 117 119 122 125 128 130 133 135 137 138 139 140 141 142 143 144 145 145 145 146 147 148 148 148 147 146 146 146 146
28 29 31 32 34 35 37 39 41 43 45 47 49 51 53 55 57 58 59 62 64 66 68 70 72 74 76 78 80 82 83 84 85 87 90 92 94 95 97 99 101 102 104 105 108 111 113 116 119 122 124 126 129 131 133 135 136 137 138 139 140 140 141 141 141 142 142 143 144 144 143 142 141 141
26 27 29 30 31 33 34 36 38 40 42 44 46 47 50 52 53 54 55 58 60 61 64 66 68 70 72 74 76 77 79 80 81 84 86 87 89 91 92 94 95 97 99 101 103 106 108 110 112 115 117 120 122 124 127 129 131 133 134 135 135 136 136 136 136 136 137 138 139 140 140 140 139 138
24 25 26 28 29 30 32 33 35 37 39 41 43 45 48 49 49 50 52 54 56 57 59 61 63 66 68 70 72 74 76 77 79 81 83 84 86 88 89 90 92 94 96 98 99 101 103 104 106 109 111 113 115 118 121 123 125 127 128 130 131 132 132 133 133 133 133 133 134 135 135 136 136 136
22 23 24 25 26 28 29 31 32 34 36 38 41 43 45 46 46 47 49 51 52 54 56 58 59 62 64 66 69 71 73 75 77 78 80 81 83 84 86 87 88 90 92 94 95 96 98 99 101 103 105 107 109 112 114 117 119 121 122 124 125 127 128 128 129 129 129 130 130 130 130 131 131 132
20 21 22 23 24 25 27 28 30 32 33 36 38 40 41 41 42 44 45 47 48 51 53 54 56 58 60 62 64 66 68 71 72 74 75 77 78 80 81 83 85 87 89 90 90 91 93 94 96 98 100 103 104 106 109 111 114 116 118 119 121 122 123 124 124 125 125 126 126 126 126 127 127 128
18 19 20 21 22 23 24 26 27 29 31 33 34 36 37 37 38 40 42 43 45 47 49 51 53 55 56 58 60 62 63 64 65 67 69 72 74 76 78 80 82 84 86 87 87 88 90 91 93 95 96 98 100 102 104 107 109 112 114 115 117 118 119 120 120 121 121 122 122 123 123 124 124 125
16 17 18 19 20 21 23 23 24 26 28 29 31 32 33 34 34 36 38 39 40 43 46 49 51 52 53 55 56 57 57 58 59 61 64 67 69 71 74 77 79 81 82 83 84 85 87 89 90 91 93 94 96 98 100 102 104 107 109 110 112 113 115 116 117 117 118 118 119 120 120 121 122 122
15 16 17 18 19 20 21 22 23 24 25 26 28 29 30 30 31 32 33 35 38 41 43 45 47 49 50 51 52 52 53 55 56 58 59 61 63 65 68 71 73 76 77 79 80 82 83 85 86 87 88 89 91 94 96 98 100 102 103 105 106 108 109 111 112 113 114 115 116 116 117 117 118 119
12 14 15 17 18 19 20 21 21 22 24 25 26 26 27 27 28 28 30 32 35 38 40 41 43 45 46 47 49 51 52 54 55 56 57 58 60 62 65 67 69 71 73 74 76 77 79 80 82 82 84 85 87 89 91 92 94 96 98 100 101 103 104 105 107 109 110 111 112 112 113 113 114 115
9 11 13 14 16 17 18 18 19 20 21 23 24 25 25 26 26 26 27 29 31 34 36 38 40 41 43 44 46 48 49 50 52 53 55 57 59 61 63 65 67 69 70 71 72 74 75 77 78 79 80 82 83 85 86 87 89 90 92 94 96 97 98 100 102 103 105 106 107 108 109 110 111 112
6 7 9 12 13 14 15 16 17 18 19 20 21 23 24 24 25 25 25 26 28 30 32 34 36 38 40 42 43 45 46 47 48 49 51 53 56 58 60 62 64 66 67 68 69 71 72 73 75 76 77 79 80 81 83 84 86 87 89 90 91 93 94 96 98 99 100 101 102 104 105 106 107 109
2 4 5 7 10 11 12 13 13 14 15 17 18 20 21 22 23 24 24 25 25 27 28 30 32 34 36 38 40 41 43 44 45 47 48 50 52 53 55 57 59 60 62 64 66 67 69 70 71 73 74 75 77 78 79 81 83 85 86 87 88 89 90 92 93 94 95 97 98 100 101 103 104 106
0 1 2 3 5 7 8 9 10 11 12 13 15 16 18 19 20 21 22 23 24 25 26 28 29 31 32 34 36 37 38 40 42 43 45 46 48 50 51 53 54 56 57 59 61 63 65 67 68 69 71 72 73 74 76 78 80 81 82 82 83 84 85 87 88 88 90 91 93 95 97 99 101 103
3 2 1 1 2 3 4 6 7 8 9 10 11 13 14 15 17 18 19 21 22 23 25 26 27 29 30 31 33 34 35 37 38 39 41 43 45 46 47 49 50 52 53 55 57 59 61 62 64 66 67 69 70 71 74 75 76 76 77 78 80 81 82 83 83 84 85 87 89 90 92 95 97 99
5 4 3 2 2 1 2 3 4 5 6 7 8 9 10 12 13 15 16 18 19 21 22 24 25 27 28 29 31 32 34 35 36 37 39 40 42 43 45 46 47 49 50 52 54 55 57 59 60 62 64 65 67 69 71 71 71 72 74 75 77 78 79 79 80 81 83 85 86 87 89 91 93 94
5 4 4 4 3 3 2 1 1 2 3 4 5 5 7 8 9 11 12 14 15 17 19 20 22 24 25 27 29 30 32 33 35 36 37 39 40 42 43 44 45 47 48 50 51 53 54 56 57 59 61 63 65 66 67 67 68 70 72 72 73 74 75 75 77 78 80 81 83 84 85 87 89 90
4 4 4 3 3 3 3 2 2 1 1 0 1 3 4 5 7 9 10 11 13 14 16 17 19 21 22 24 26 27 29 31 32 34 35 37 39 40 42 43 44 46 47 48 50 51 52 54 55 57 59 60 62 63 63 64 67 69 70 70 71 72 72 73 75 76 77 79 80 81 82 83 85 86
5 5 4 4 4 3 3 3 2 2 1 1 1 2 3 4 5 7 8 10 11 12 14 15 16 18 19 21 22 24 25 27 28 30 32 34 36 37 39 41 42 44 45 47 48 50 51 53 54 56 57 58 59 60 61 62 64 66 66 67 68 69 71 72 73 75 76 77 78 79 80 81 82 83
6 6 6 5 5 5 4 4 3 3 2 2 2 3 4 5 6 7 8 9 10 11 12 13 14 16 17 18 19 21 22 24 25 27 29 30 32 34 36 37 39 40 42 44 46 47 49 51 52 54 55 56 57 58 59 61 62 62 63 64 65 67 68 70 71 72 73 74 75 77 78 79 79 80
7 7 7 7 6 6 6 5 5 5 4 4 4 4 5 6 6 7 8 9 10 11 12 13 14 15 16 17 18 19 21 22 24 25 27 28 30 31 33 34 36 37 39 41 43 44 46 48 50 51 52 54 55 56 57 58 59 60 61 62 64 65 66 67 68 68 69 70 72 73 75 76 76 78
7 7 7 7 7 6 6 6 6 5 5 5 6 6 6 7 7 8 8 9 10 11 12 12 13 14 15 16 18 19 20 21 23 24 25 27 28 30 31 33 34 36 37 39 41 43 44 46 47 49 50 51 52 53 55 56 56 57 58 60 61 63 64 64 65 65 67 68 69 70 71 71 72 74
7 7 7 7 6 6 6 6 6 6 6 6 6 7 7 7 8 8 9 9 10 11 11 12 13 14 16 17 18 19 21 22 23 24 26 27 28 30 31 33 34 35 37 38 40 41 43 44 46 47 48 49 51 52 53 53 54 55 56 58 59 61 61 61 62 64 65 67 68 68 67 67 68 70
7 7 7 7 7 7 7 7 7 7 7 7 7 7 7 8 8 9 9 10 10 11 12 12 13 14 15 16 18 19 20 22 23 24 26 27 28 30 31 32 34 35 37 38 39 40 42 43 45 46 47 48 49 50 51 52 53 54 54 56 57 59 59 60 61 63 64 65 67 66 64 64 65 67
Wind_Direction
238 237 235 234 234 234 234 234 234 234 234 233 232 231 232 232 233 235 236 236 235 234 234 235 236 237 238 238 238 239 239 238 238 238 237 238 238 239 239 239 239 239 239 240 241 241 242 242 242 242 242 243 243 244 244 245 245 246 246 246 247 247 248 248 249 249 249 250 250 251 251 251 251 251
238 237 236 235 234 233 233 233 233 234 234 234 233 232 232 231 232 233 235 236 236 235 234 234 235 236 237 237 237 238 238 238 238 238 238 237 237 238 239 240 240 239 239 239 240 240 241 241 241 241 242 242 243 243 243 244 244 245 245 245 246 246 247 247 248 248 248 249 249 249 250 250 250 251
238 237 236 235 234 233 233 233 233 233 233 234 233 233 232 232 231 232 233 234 235 236 235 234 234 234 236 236 237 238 238 239 238 238 238 238 237 237 238 239 239 240 240 239 239 240 241 241 241 241 241 242 242 243 243 243 244 244 245 245 245 245 246 246 246 247 247 248 248 248 249 249 250 250
238 237 236 235 234 234 233 233 233 233 233 233 233 233 233 232 232 231 232 232 234 235 236 235 234 234 234 235 236 237 238 239 239 239 238 238 238 238 238 238 238 239 240 240 240 240 240 241 242 242 242 242 242 243 243 243 244 244 244 245 244 245 245 245 246 246 246 247 247 248 248 248 249 249
238 237 236 236 234 234 233 233 233 233 233 233 233 233 233 233 233 233 232 232 233 234 235 236 236 235 235 235 235 236 237 238 239 240 240 239 238 238 238 238 238 238 239 240 241 241 241 241 242 242 242 242 242 242 243 243 243 244 244 245 244 244 245 245 245 246 246 246 246 247 248 248 248 248
238 237 236 236 235 234 233 233 233 233 234 234 234 234 234 234 234 233 233 233 233 234 234 235 236 236 236 236 235 236 236 237 238 239 240 240 240 239 239 239 239 239 239 239 240 241 241 241 241 242 242 242 242 242 242 243 243 243 244 244 245 244 244 245 245 245 245 246 246 246 247 248 248 248
238 237 236 236 235 234 234 233 233 233 233 234 234 234 234 234 234 234 234 234 234 234 234 234 235 236 237 237 236 236 236 236 237 238 239 240 241 240 240 239 239 239 239 239 239 240 241 242 242 242 242 242 242 242 242 243 243 243 244 244 245 245 245 245 245 245 246 246 246 246 247 247 248 248
236 236 236 236 236 235 235 234 233 232 233 233 234 234 234 234 234 234 233 233 233 233 234 234 234 234 235 236 237 236 236 236 236 237 238 239 241 241 241 240 239 238 238 239 239 239 240 241 242 242 242 243 243 243 243 243 243 244 244 244 244 244 245 245 245 245 246 246 246 246 247 247 247 248
234 234 234 235 235 235 235 235 234 233 233 233 233 234 234 234 234 234 233 233 233 233 233 234 233 233 234 235 236 237 236 236 236 236 236 238 240 241 242 241 240 239 239 239 239 239 239 240 241 243 243 243 243 244 244 244 243 244 244 245 245 245 245 245 245 245 246 246 246 247 247 247 247 247
235 234 234 233 233 233 234 234 234 234 234 234 234 234 234 234 234 235 234 234 233 233 233 234 234 233 233 234 235 236 236 236 236 236 236 236 238 239 241 242 241 241 240 239 239 239 239 239 240 241 243 243 244 244 244 244 244 244 244 245 245 246 246 246 245 245 246 246 247 247 247 247 247 247
236 236 235 234 233 233 233 233 233 233 234 234 234 234 234 234 234 235 235 235 234 234 234 234 234 234 233 233 234 235 236 236 236 236 236 236 237 238 240 241 242 242 241 240 240 239 239 239 240 240 241 242 243 244 244 244 245 245 245 245 245 246 246 246 246 246 246 246 247 247 247 247 247 247
238 237 237 236 235 235 234 233 233 233 233 233 233 233 233 234 234 235 236 236 235 234 234 234 235 235 234 234 234 235 236 236 237 237 237 237 237 238 239 240 241 242 241 241 241 240 239 239 240 240 241 241 242 243 244 245 245 246 246 245 245 246 246 246 246 246 246 246 247 247 247 247 247 248
238 238 237 237 237 236 236 235 234 234 233 232 232 232 233 233 234 235 236 237 237 236 235 235 235 235 235 235 235 235 236 237 237 237 237 237 237 237 238 239 240 241 242 241 241 241 241 240 240 241 241 241 241 242 243 245 246 246 246 246 246 246 246 247 247 247 247 247 247 248 248 248 248 248
237 237 237 237 236 236 236 235 235 234 234 233 232 232 232 233 234 235 236 237 237 237 236 235 235 235 234 235 235 236 236 236 237 237 237 237 237 238 238 239 239 240 241 241 241 241 242 242 241 241 241 242 242 242 242 243 244 246 246 247 247 246 246 247 247 247 248 248 248 248 249 249 249 249
237 236 236 235 235 235 235 235 234 234 234 233 233 233 233 233 234 235 235 236 237 236 236 235 234 234 234 234 235 235 235 236 236 237 237 237 238 238 238 239 239 240 240 241 241 241 241 242 242 242 242 242 242 242 242 243 243 245 246 247 247 248 248 248 248 248 248 248 249 249 249 250 250 250
235 235 234 234 234 234 234 233 233 233 233 233 233 233 233 234 235 235 235 236 236 236 236 235 234 234 234 234 234 235 235 235 236 236 237 237 237 238 238 239 239 240 240 240 240 241 241 241 242 242 243 243 243 243 243 243 244 244 245 246 247 248 248 249 249 249 249 249 249 249 250 250 251 251
235 235 234 234 233 233 232 232 232 232 232 231 231 232 233 234 235 236 236 236 236 237 236 235 234 234 234 234 234 235 235 235 236 236 237 237 237 238 238 239 239 239 240 240 240 240 241 241 242 242 243 243 243 244 244 244 244 245 246 246 247 248 248 249 249 249 250 250 250 250 250 250 251 251
235 234 234 234 234 234 233 233 232 232 231 231 231 230 230 231 233 234 236 237 237 237 237 236 235 234 234 234 234 235 235 236 236 237 237 237 238 238 238 239 239 240 240 240 240 241 241 242 242 243 243 244 244 244 244 245 245 245 246 246 247 248 248 249 249 250 250 250 250 251 251 251 251 251
233 233 233 233 233 233 234 234 233 233 233 232 232 231 230 231 231 232 233 235 236 237 237 237 236 235 234 234 234 235 236 237 238 238 238 238 239 239 239 239 240 240 241 241 241 241 241 242 242 243 243 244 245 245 245 245 245 246 246 246 247 247 248 249 249 250 250 250 250 250 251 251 252 252
234 233 233 232 232 232 233 233 233 233 233 233 233 232 232 232 232 232 232 233 234 235 236 237 237 237 236 236 235 236 236 237 238 239 239 240 240 241 241 241 241 241 241 241 241 241 241 241 242 242 243 244 244 245 245 245 246 246 247 247 247 248 248 249 249 250 250 251 251 251 251 251 251 252
234 234 234 233 232 232 232 232 233 233 233 233 233 233 233 233 233 233 233 233 233 234 235 236 236 237 237 237 238 238 238 238 239 239 240 240 241 241 242 242 242 242 241 241 241 241 241 241 241 242 242 243 244 245 245 245 246 246 246 247 248 248 248 249 249 250 251 251 251 251 251 251 251 251
235 235 234 234 234 233 233 232 233 233 234 234 234 234 234 234 234 234 233 233 234 234 235 235 236 236 237 237 238 239 239 239 240 240 240 241 241 241 241 242 242 242 242 242 242 242 242 242 242 242 242 243 243 244 245 246 246 246 247 247 248 248 248 249 249 250 250 251 252 252 252 252 252 252
236 236 236 236 235 234 234 233 233 233 234 234 234 234 234 235 235 235 235 235 235 234 235 235 236 236 237 237 237 238 239 239 239 240 240 241 241 241 242 242 242 243 243 243 243 243 243 243 243 243 243 243 244 244 245 246 246 247 247 248 248 249 249 249 249 250 250 251 252 253 253 253 253 252
236 236 236 236 236 236 235 235 234 234 234 234 234 235 235 235 234 234 235 236 236 236 235 235 235 236 236 237 237 238 238 239 239 239 240 240 241 241 242 242 242 243 243 243 243 243 243 243 243 243 243 244 244 244 245 246 246 247 247 248 248 249 250 250 250 250 250 251 251 252 253 253 253 253
238 237 236 236 236 236 237 237 236 236 235 235 235 235 235 235 234 234 234 235 236 236 236 236 236 236 236 236 236 237 237 237 238 238 239 239 240 240 240 241 241 241 241 241 241 242 242 242 242 243 243 243 243 244 245 245 246 246 247 247 248 248 249 250 250 250 250 251 251 251 251 252 253 253
241 240 239 238 236 235 235 235 236 236 236 236 235 235 235 235 234 234 234 235 235 236 236 236 236 236 236 236 236 236 236 236 236 237 237 238 239 239 240 240 241 241 242 242 242 242 242 242 243 243 243 243 243 244 244 245 245 246 247 247 248 248 248 249 249 249 250 250 251 251 251 251 252 252
245 244 243 241 240 238 236 235 235 235 235 236 237 237 236 235 235 235 235 235 235 236 236 237 237 236 236 236 237 237 237 237 237 237 238 238 239 239 240 241 241 242 242 242 242 243 243 243 243 243 243 243 243 243 244 244 245 245 246 246 247 247 248 248 249 249 249 250 250 251 251 251 252 252
245 245 245 244 243 242 240 238 236 235 235 236 237 238 238 236 234 235 235 234 234 235 236 237 237 237 237 237 237 237 238 238 238 239 239 239 239 239 240 240 240 241 241 241 242 242 242 242 242 242 242 243 243 243 243 244 244 245 245 245 246 247 247 248 248 248 249 249 249 250 250 251 251 251
244 244 245 244 244 244 244 242 240 239 237 236 236 237 238 236 233 233 234 233 233 233 234 235 236 236 236 237 238 239 239 239 239 239 239 239 240 240 240 241 241 241 242 242 242 242 242 242 242 242 242 242 243 243 243 243 244 244 245 245 246 246 247 247 248 248 249 249 249 249 249 250 250 251
245 245 244 244 243 243 243 242 241 241 241 240 238 236 236 235 232 230 230 231 232 232 233 235 236 237 237 237 238 238 238 238 238 238 239 239 240 241 242 242 243 243 243 243 243 243 243 243 243 243 243 242 243 243 243 243 243 244 245 245 245 246 246 247 248 248 249 249 249 249 249 249 250 250
247 247 246 245 244 243 242 240 239 238 239 240 241 240 238 236 232 228 225 226 228 230 232 233 234 236 237 237 237 237 237 236 236 236 236 236 237 238 239 240 241 242 243 243 244 244 244 245 245 245 245 244 244 244 244 244 244 245 245 245 246 246 246 247 247 248 248 249 249 249 250 250 250 250
254 254 252 250 247 244 242 240 238 236 235 235 237 238 239 238 236 231 227 224 224 227 229 231 232 233 234 235 236 237 238 238 238 237 236 236 236 236 237 238 239 240 241 241 242 243 243 244 244 244 245 245 245 245 245 245 245 245 245 245 246 246 247 247 247 247 248 248 249 249 249 249 249 249
261 262 261 256 250 244 240 238 236 235 234 233 232 233 235 236 236 235 232 228 225 225 227 229 231 232 233 234 235 235 237 238 238 239 239 239 239 239 239 239 240 241 241 242 243 243 244 244 244 244 245 245 245 245 245 246 246 246 246 245 245 245 246 246 246 246 246 247 248 248 248 248 249 249
251 255 258 256 250 243 237 235 234 234 232 231 230 230 231 232 234 234 234 232 229 227 227 228 229 231 233 234 235 236 236 237 237 238 238 239 240 241 241 242 243 243 243 244 244 245 245 246 246 246 246 246 246 246 247 247 247 247 247 246 246 246 246 246 246 246 246 246 247 247 247 248 248 248
205 201 213 231 236 235 231 228 228 230 231 230 229 229 229 229 230 231 232 232 231 229 228 228 228 230 231 233 234 236 237 237 238 238 239 240 240 241 242 242 243 244 244 245 245 246 246 247 247 248 248 247 247 247 247 247 247 248 248 249 249 249 249 248 248 248 248 248 248 248 248 248 248 248
27 44 100 150 180 201 211 214 216 218 221 223 225 226 227 228 228 228 229 229 230 230 230 229 229 229 230 231 232 234 235 236 237 238 239 240 241 242 242 243 243 244 244 244 245 245 246 246 247 248 248 249 249 249 249 248 249 249 249 249 249 249 249 249 250 250 249 249 249 249 248 249 249 249
19 21 27 42 68 113 153 180 196 203 208 213 217 221 224 227 228 229 228 228 228 228 229 229 229 229 230 230 231 232 234 235 236 237 238 239 240 241 242 243 243 244 244 244 245 245 245 246 246 247 247 247 248 248 249 250 250 250 250 250 249 250 250 250 250 250 249 249 249 248 248 248 248 248
12 12 15 20 26 34 49 67 114 167 187 199 207 214 221 225 228 230 231 231 230 230 230 230 230 230 230 231 232 233 233 234 235 236 237 239 240 241 242 243 244 244 245 245 246 246 246 246 247 247 247 247 247 247 248 249 249 250 250 250 250 250 250 250 250 250 250 250 250 250 250 250 250 249
6 5 7 13 17 19 23 24 25 32 43 182 204 215 221 225 227 229 229 230 230 230 230 230 230 231 231 231 232 233 234 235 236 237 238 239 240 241 243 244 244 245 246 247 247 248 248 248 248 248 248 249 249 249 249 249 249 249 249 249 250 250 250 250 250 250 250 250 250 250 250 250 250 250
4 5 5 6 9 11 13 12 6 357 340 310 268 249 238 235 234 235 234 234 233 232 231 231 231 232 233 233 234 235 235 236 237 238 239 240 241 242 243 244 245 245 246 247 248 248 249 249 250 250 251 251 251 251 251 250 250 250 250 250 251 250 250 250 249 249 249 250 250 250 250 250 251 251
2 2 0 360 360 359 358 356 350 339 323 304 278 262 250 243 239 238 237 237 237 237 237 237 236 237 238 238 239 239 240 240 241 241 242 242 243 243 244 245 245 246 246 247 248 248 249 249 250 251 251 251 252 252 252 252 253 253 253 253 252 252 251 251 251 250 250 250 250 250 251 251 251 252
357 356 355 354 352 351 349 345 341 333 324 313 300 284 271 259 251 246 243 241 240 239 239 240 240 241 242 242 243 244 245 246 246 246 247 247 247 247 248 248 248 248 248 248 249 249 249 250 250 251 251 251 252 252 252 252 253 253 254 254 254 254 254 253 253 253 252 252 251 251 251 251 252 252
350 348 346 344 342 340 338 335 331 325 318 310 302 293 286 277 271 264 259 254 251 248 246 245 245 245 246 246 247 248 248 249 250 250 250 251 251 251 251 252 252 252 251 251 251 251 252 252 252 253 253 253 253 253 253 253 253 253 253 254 254 254 254 254 255 255 254 254 253 252 252 252 252 252
338 338 336 333 331 330 327 324 320 316 310 304 297 291 285 280 275 270 266 262 258 255 253 251 249 249 249 249 249 249 250 250 251 251 252 252 252 253 253 253 254 254 254 254 255 255 255 255 256 256 256 256 255 255 255 255 255 254 254 254 254 255 255 255 255 255 255 255 254 254 253 253 253 253
327 328 328 327 326 325 325 323 320 316 311 305 299 295 290 285 280 276 271 268 266 264 262 259 258 257 256 256 256 256 256 256 256 256 256 256 256 256 256 256 256 256 256 257 257 257 258 258 258 259 259 258 258 258 258 258 257 256 256 256 257 257 257 256 255 255 255 255 255 255 254 254 254 254
Height
10028 10033 10039 10047 10055 10062 10068 10074 10079 10087 10096 10105 10113 10120 10129 10138 10143 10148 10155 10166 10179 10191 10198 10205 10213 10220 10228 10237 10243 10248 10257 10269 10279 10286 10293 10301 10309 10316 10322 10327 10336 10346 10354 10360 10365 10370 10376 10383 10391 10398 10404 10409 10415 10420 10425 10429 10434 10439 10443 10450 10455 10459 10462 10466 10473 10479 10483 10488 10494 10498 10501 10506 10511 10514
10013 10019 10026 10034 10042 10047 10053 10059 10065 10072 10080 10087 10096 10105 10113 10121 10128 10134 10141 10151 10162 10170 10180 10190 10198 10201 10208 10217 10223 10228 10235 10246 10257 10266 10274 10284 10293 10300 10305 10310 10318 10328 10338 10345 10350 10355 10360 10367 10375 10384 10390 10395 10400 10407 10412 10416 10421 10425 10430 10436 10441 10445 10449 10454 10460 10466 10471 10476 10482 10485 10487 10492 10498 10503
9999 10006 10013 10020 10028 10033 10037 10044 10050 10057 10064 10071 10079 10089 10096 10104 10112 10119 10125 10133 10142 10150 10160 10173 10181 10185 10190 10197 10204 10211 10217 10225 10236 10247 10255 10265 10275 10282 10287 10293 10301 10310 10320 10330 10337 10342 10346 10352 10359 10368 10376 10382 10387 10393 10398 10403 10407 10411 10416 10422 10427 10432 10436 10441 10447 10452 10458 10463 10467 10471 10475 10480 10486 10490
9988 9994 10000 10007 10014 10018 10023 10031 10037 10043 10050 10056 10064 10072 10080 10087 10095 10103 10109 10117 10127 10134 10142 10154 10163 10167 10173 10179 10187 10196 10203 10210 10219 10229 10238 10246 10256 10263 10268 10277 10287 10296 10304 10313 10322 10330 10334 10338 10344 10352 10361 10368 10373 10379 10384 10389 10393 10397 10402 10407 10413 10419 10423 10427 10433 10439 10445 10450 10453 10457 10462 10468 10473 10477
9976 9982 9988 9994 10000 10005 10011 10019 10024 10030 10036 10042 10048 10056 10064 10072 10080 10088 10097 10106 10114 10120 10126 10136 10145 10151 10158 10166 10174 10183 10190 10197 10204 10213 10221 10228 10238 10246 10253 10262 10273 10283 10292 10298 10306 10314 10320 10325 10329 10335 10344 10352 10358 10364 10369 10374 10379 10382 10386 10391 10398 10405 10409 10414 10420 10426 10431 10437 10440 10444 10448 10454 10460 10464
9965 9971 9976 9981 9987 9992 10000 10007 10012 10017 10023 10029 10035 10042 10051 10059 10067 10076 10085 10094 10101 10107 10112 10120 10129 10135 10142 10152 10162 10170 10177 10184 10190 10197 10203 10209 10218 10228 10237 10247 10258 10268 10277 10285 10290 10296 10302 10309 10314 10320 10327 10334 10341 10348 10353 10358 10363 10367 10371 10376 10383 10390 10396 10401 10407 10412 10417 10423 10427 10431 10435 10440 10446 10450
9956 9960 9965 9969 9975 9982 9989 9995 10000 10005 10011 10016 10022 10030 10038 10047 10055 10063 10072 10080 10087 10093 10098 10105 10114 10121 10127 10136 10145 10153 10159 10166 10173 10180 10186 10190 10197 10206 10217 10230 10241 10251 10259 10268 10275 10281 10286 10291 10298 10305 10310 10317 10324 10331 10338 10343 10347 10352 10356 10362 10368 10375 10382 10388 10394 10399 10404 10409 10414 10418 10423 10427 10431 10436
9946 9950 9955 9959 9965 9972 9978 9983 9988 9993 9999 10004 10009 10017 10027 10035 10042 10049 10057 10064 10071 10076 10081 10088 10098 10106 10112 10119 10127 10134 10141 10148 10157 10165 10171 10175 10180 10187 10197 10210 10222 10233 10241 10249 10259 10268 10273 10276 10281 10288 10295 10301 10307 10314 10322 10329 10333 10337 10342 10347 10353 10359 10366 10374 10381 10386 10390 10394 10400 10404 10409 10413 10418 10422
9937 9941 9945 9951 9957 9962 9966 9971 9976 9982 9988 9993 9998 10006 10015 10022 10027 10033 10040 10047 10054 10061 10066 10072 10081 10090 10097 10103 10109 10116 10124 10131 10140 10149 10156 10161 10165 10170 10177 10188 10201 10214 10224 10233 10242 10252 10259 10264 10267 10271 10278 10286 10291 10297 10304 10312 10318 10322 10326 10332 10338 10344 10351 10359 10367 10373 10376 10380 10384 10389 10394 10399 10404 10409
9928 9932 9937 9942 9947 9952 9955 9960 9965 9971 9978 9983 9989 9997 10004 10008 10012 10017 10024 10032 10040 10048 10054 10059 10066 10075 10083 10089 10093 10099 10107 10115 10123 10132 10139 10145 10150 10153 10158 10167 10180 10193 10205 10216 10226 10235 10243 10249 10253 10257 10261 10267 10273 10280 10286 10293 10299 10305 10312 10319 10324 10329 10336 10344 10353 10358 10362 10365 10368 10372 10378 10384 10390 10396
9919 9924 9929 9934 9938 9941 9945 9950 9956 9962 9969 9974 9980 9988 9992 9994 9999 10004 10010 10019 10027 10035 10041 10047 10053 10062 10070 10076 10079 10084 10090 10097 10105 10115 10123 10130 10136 10140 10144 10149 10159 10173 10186 10197 10207 10216 10225 10230 10235 10240 10246 10250 10255 10262 10268 10275 10281 10287 10295 10305 10311 10314 10319 10327 10335 10342 10346 10350 10352 10356 10363 10370 10376 10381
9912 9916 9921 9925 9929 9933 9937 9942 9947 9952 9959 9964 9970 9975 9978 9982 9987 9992 9998 10005 10014 10021 10028 10035 10042 10050 10057 10063 10067 10070 10076 10083 10092 10102 10110 10117 10122 10126 10130 10134 10141 10153 10166 10177 10186 10195 10205 10213 10218 10223 10229 10236 10242 10247 10252 10258 10264 10269 10278 10288 10296 10300 10303 10309 10317 10324 10329 10334 10338 10341 10347 10354 10360 10365
9905 9909 9913 9917 9920 9925 9929 9934 9938 9943 9949 9954 9959 9962 9966 9971 9976 9981 9986 9993 10001 10009 10016 10023 10031 10038 10045 10051 10054 10058 10065 10073 10081 10087 10093 10098 10104 10108 10112 10118 10125 10134 10146 10158 10168 10176 10185 10194 10201 10206 10212 10220 10228 10233 10237 10242 10246 10252 10259 10268 10277 10284 10288 10292 10299 10307 10313 10318 10323 10327 10331 10336 10343 10349
9898 9902 9906 9910 9913 9917 9921 9925 9930 9934 9939 9944 9948 9951 9955 9960 9965 9970 9976 9982 9989 9996 10004 10012 10019 10026 10033 10038 10042 10047 10054 10060 10063 10068 10074 10081 10087 10091 10096 10104 10112 10120 10130 10141 10151 10159 10167 10175 10182 10189 10195 10201 10209 10217 10224 10228 10230 10234 10240 10247 10255 10264 10272 10277 10283 10290 10297 10302 10307 10312 10316 10320 10326 10333
9892 9895 9899 9902 9906 9909 9913 9917 9921 9925 9930 9934 9938 9942 9946 9950 9954 9959 9965 9970 9976 9983 9991 9999 10006 10013 10020 10025 10028 10032 10038 10042 10046 10051 10058 10064 10070 10076 10084 10092 10100 10107 10115 10124 10132 10140 10148 10156 10163 10171 10178 10184 10191 10199 10207 10214 10217 10219 10223 10230 10237 10245 10253 10261 10267 10274 10281 10286 10292 10297 10301 10305 10310 10316
9885 9888 9891 9894 9898 9901 9905 9909 9912 9916 9920 9925 9929 9934 9938 9941 9945 9949 9954 9960 9965 9972 9979 9986 9993 10001 10006 10010 10013 10017 10022 10026 10030 10035 10040 10046 10055 10062 10070 10079 10086 10093 10100 10107 10115 10122 10130 10139 10146 10154 10161 10168 10175 10182 10190 10197 10203 10205 10209 10214 10221 10228 10235 10243 10249 10256 10263 10269 10275 10281 10286 10290 10294 10299
9879 9882 9884 9887 9890 9893 9897 9900 9904 9907 9911 9915 9919 9924 9928 9932 9936 9939 9944 9949 9955 9961 9968 9975 9982 9988 9992 9996 10000 10004 10006 10009 10013 10018 10025 10034 10042 10049 10057 10065 10072 10077 10083 10090 10099 10107 10115 10124 10132 10139 10145 10152 10159 10166 10173 10180 10186 10190 10195 10200 10206 10213 10219 10226 10231 10237 10244 10251 10257 10263 10269 10273 10278 10283
9873 9876 9879 9882 9884 9887 9890 9893 9896 9899 9902 9906 9909 9913 9917 9921 9925 9930 9935 9940 9945 9950 9956 9962 9968 9974 9978 9983 9987 9989 9990 9994 10000 10008 10015 10022 10029 10036 10043 10049 10055 10062 10070 10078 10087 10095 10103 10111 10119 10125 10130 10135 10141 10149 10156 10162 10168 10173 10179 10185 10190 10196 10202 10208 10214 10219 10226 10232 10238 10244 10250 10254 10260 10266
9867 9870 9873 9875 9878 9881 9884 9887 9890 9893 9896 9898 9901 9905 9908 9911 9916 9920 9924 9929 9934 9940 9945 9950 9955 9960 9965 9970 9973 9975 9980 9986 9992 9999 10005 10011 10018 10025 10032 10038 10045 10054 10062 10070 10078 10086 10093 10100 10104 10109 10114 10118 10124 10131 10138 10146 10152 10156 10161 10167 10174 10180 10185 10191 10196 10201 10206 10212 10219 10226 10232 10237 10242 10248
9862 9864 9867 9870 9872 9875 9878 9880 9883 9886 9888 9891 9894 9897 9901 9904 9908 9911 9915 9920 9925 9930 9935 9939 9944 9949 9955 9959 9962 9966 9972 9978 9983 9988 9996 10004 10012 10019 10025 10031 10037 10044 10051 10057 10064 10072 10078 10083 10087 10092 10097 10101 10107 10114 10121 10129 10136 10141 10145 10150 10156 10163 10169 10174 10179 10183 10186 10192 10199 10207 10214 10220 10226 10232
9857 9859 9862 9864 9867 9869 9872 9874 9877 9879 9881 9884 9887 9890 9893 9896 9900 9903 9907 9912 9917 9921 9925 9929 9934 9939 9945 9950 9954 9958 9964 9970 9975 9981 9989 9998 10004 10009 10014 10019 10024 10029 10034 10041 10048 10055 10061 10065 10069 10075 10080 10085 10090 10096 10103 10110 10117 10123 10128 10133 10138 10144 10151 10157 10162 10166 10169 10173 10179 10187 10194 10201 10207 10214
9853 9855 9857 9859 9861 9864 9866 9868 9871 9873 9875 9878 9881 9883 9886 9889 9892 9896 9901 9905 9909 9913 9917 9921 9925 9930 9935 9940 9944 9949 9956 9962 9968 9975 9981 9986 9990 9995 10001 10006 10010 10015 10021 10029 10035 10041 10046 10051 10055 10060 10066 10071 10076 10082 10087 10093 10098 10104 10110 10115 10120 10126 10132 10138 10144 10149 10153 10156 10160 10167 10173 10180 10186 10193
9849 9851 9852 9854 9856 9858 9860 9862 9865 9867 9869 9871 9874 9877 9880 9882 9885 9890 9895 9898 9902 9906 9909 9913 9917 9921 9926 9931 9935 9940 9946 9953 9959 9965 9969 9973 9977 9983 9988 9993 9997 10004 10011 10017 10021 10025 10031 10036 10041 10046 10052 10058 10063 10069 10073 10077 10082 10087 10092 10098 10103 10109 10114 10120 10126 10132 10137 10141 10144 10148 10153 10158 10164 10170
9846 9847 9848 9850 9851 9853 9855 9857 9859 9861 9863 9865 9868 9870 9872 9875 9879 9885 9889 9891 9894 9899 9902 9906 9910 9913 9918 9922 9926 9931 9937 9943 9948 9953 9957 9961 9966 9970 9975 9981 9986 9992 9997 10000 10003 10008 10015 10020 10026 10032 10037 10042 10049 10054 10058 10061 10066 10071 10076 10082 10088 10093 10097 10102 10108 10115 10120 10124 10127 10131 10134 10138 10142 10148
9842 9843 9844 9846 9847 9849 9850 9852 9854 9856 9858 9860 9862 9864 9865 9869 9874 9879 9881 9883 9887 9892 9895 9898 9902 9905 9909 9913 9917 9922 9927 9932 9936 9940 9945 9950 9953 9957 9962 9967 9972 9977 9980 9983 9988 9994 10000 10006 10012 10017 10022 10027 10034 10039 10042 10045 10049 10054 10060 10066 10071 10076 10080 10085 10091 10096 10100 10104 10109 10113 10116 10121 10125 10129
9838 9839 9840 9841 9843 9844 9846 9847 9848 9850 9852 9853 9855 9857 9859 9864 9869 9872 9874 9877 9881 9884 9886 9890 9893 9897 9901 9904 9907 9912 9916 9920 9924 9929 9933 9938 9941 9946 9951 9956 9960 9964 9967 9970 9977 9983 9988 9994 10000 10004 10009 10014 10020 10024 10027 10031 10035 10039 10044 10049 10054 10058 10063 10067 10073 10078 10082 10086 10091 10095 10100 10105 10108 10111
9835 9836 9837 9838 9839 9840 9841 9843 9844 9845 9847 9848 9849 9851 9855 9859 9863 9866 9868 9872 9875 9877 9879 9882 9885 9888 9892 9896 9899 9903 9907 9911 9916 9920 9925 9929 9934 9938 9943 9946 9950 9953 9955 9960 9967 9973 9977 9982 9987 9991 9995 9999 10004 10010 10014 10017 10020 10024 10028 10032 10036 10040 10045 10050 10056 10061 10066 10070 10074 10078 10083 10087 10090 10093
9832 9833 9834 9834 9835 9836 9837 9838 9840 9841 9842 9844 9845 9847 9850 9853 9857 9859 9862 9865 9868 9871 9873 9875 9877 9881 9884 9887 9890 9894 9899 9904 9910 9915 9919 9922 9925 9929 9932 9935 9937 9940 9943 9949 9955 9960 9963 9968 9972 9976 9980 9984 9990 9995 9999 10001 10004 10007 10010 10015 10019 10024 10028 10034 10039 10044 10049 10053 10057 10061 10066 10069 10072 10075
9830 9831 9831 9832 9832 9833 9833 9834 9836 9837 9838 9840 9841 9842 9844 9848 9851 9854 9856 9860 9863 9864 9866 9867 9870 9873 9877 9880 9883 9888 9893 9898 9902 9906 9909 9913 9916 9919 9922 9924 9927 9930 9933 9938 9943 9947 9951 9954 9958 9962 9967 9972 9976 9980 9983 9986 9989 9992 9995 10000 10005 10009 10013 10018 10023 10027 10031 10035 10039 10044 10048 10051 10054 10057
9829 9829 9829 9829 9830 9830 9831 9831 9832 9833 9834 9835 9836 9838 9840 9843 9846 9849 9852 9854 9856 9858 9860 9862 9864 9868 9871 9875 9878 9882 9886 9889 9893 9897 9901 9904 9908 9911 9913 9916 9918 9921 9924 9928 9932 9936 9939 9942 9946 9950 9956 9960 9963 9966 9969 9972 9976 9979 9982 9986 9991 9995 9999 10004 10007 10011 10014 10018 10022 10026 10030 10034 10038 10041
9827 9828 9828 9828 9828 9828 9829 9829 9830 9830 9831 9831 9832 9834 9836 9838 9841 9844 9847 9849 9850 9852 9854 9857 9859 9862 9865 9868 9871 9874 9877 9880 9884 9888 9892 9895 9898 9900 9903 9905 9908 9910 9914 9917 9921 9924 9928 9931 9935 9939 9944 9947 9951 9953 9956 9960 9965 9968 9971 9974 9977 9981 9986 9989 9992 9995 9998 10001 10005 10010 10014 10018 10022 10025
9826 9826 9826 9826 9826 9827 9827 9827 9828 9828 9829 9829 9829 9830 9832 9833 9836 9838 9841 9844 9846 9848 9849 9851 9853 9856 9859 9861 9864 9867 9870 9873 9877 9880 9884 9886 9888 9891 9893 9895 9897 9900 9903 9906 9910 9913 9916 9919 9923 9927 9930 9934 9937 9940 9943 9948 9952 9954 9956 9960 9963 9967 9971 9974 9977 9980 9984 9986 9991 9995 9998 10001 10003 10006
9826 9825 9825 9825 9825 9825 9825 9825 9825 9826 9826 9827 9827 9828 9829 9830 9831 9834 9836 9839 9841 9843 9845 9847 9849 9851 9853 9855 9858 9861 9863 9866 9870 9873 9876 9878 9881 9883 9886 9888 9890 9892 9896 9898 9901 9903 9906 9909 9912 9915 9918 9921 9924 9927 9930 9934 9937 9939 9940 9944 9948 9952 9955 9957 9960 9964 9968 9971 9975 9978 9980 9983 9986 9988
9825 9824 9824 9824 9824 9823 9823 9823 9823 9823 9824 9824 9825 9826 9826 9827 9828 9830 9832 9834 9836 9839 9841 9843 9845 9846 9848 9851 9853 9855 9858 9860 9863 9866 9868 9871 9873 9876 9878 9880 9883 9886 9889 9891 9893 9895 9897 9900 9902 9905 9908 9910 9913 9916 9919 9921 9923 9924 9926 9929 9934 9937 9939 9941 9944 9948 9952 9956 9959 9962 9964 9967 9969 9970
9824 9823 9823 9823 9823 9822 9822 9822 9822 9822 9822 9822 9823 9823 9824 9825 9826 9827 9828 9830 9832 9834 9836 9838 9840 9842 9844 9846 9848 9851 9853 9855 9857 9860 9862 9864 9867 9869 9871 9874 9876 9878 9881 9883 9885 9887 9889 9891 9893 9895 9898 9900 9903 9905 9907 9908 9909 9912 9915 9919 9922 9925 9927 9930 9933 9937 9941 9943 9946 9948 9950 9951 9951 9952
9823 9823 9822 9822 9822 9822 9821 9821 9821 9821 9821 9821 9821 9822 9822 9823 9824 9825 9826 9827 9829 9830 9832 9834 9836 9838 9840 9842 9844 9846 9848 9850 9852 9854 9856 9858 9860 9862 9864 9866 9868 9870 9873 9875 9877 9879 9880 9882 9884 9886 9888 9890 9892 9894 9895 9897 9900 9903 9906 9908 9910 9912 9914 9917 9921 9925 9927 9928 9930 9932 9934 9935 9935 9936
9823 9822 9822 9821 9821 9821 9821 9820 9820 9820 9820 9820 9820 9820 9821 9821 9822 9822 9823 9824 9825 9827 9828 9830 9832 9833 9835 9837 9839 9841 9842 9844 9846 9848 9850 9851 9853 9855 9857 9859 9860 9862 9864 9866 9868 9869 9871 9873 9875 9877 9878 9880 9881 9882 9883 9887 9890 9892 9893 9895 9897 9899 9902 9906 9909 9911 9911 9912 9914 9916 9918 9919 9919 9921
9823 9822 9821 9821 9821 9820 9820 9820 9820 9820 9820 9820 9820 9820 9820 9820 9821 9821 9821 9822 9823 9824 9825 9827 9828 9829 9831 9833 9834 9836 9838 9839 9841 9842 9844 9846 9847 9848 9850 9852 9853 9855 9856 9858 9859 9861 9862 9864 9865 9867 9868 9869 9870 9872 9874 9878 9880 9880 9881 9883 9886 9888 9891 9894 9896 9897 9897 9899 9901 9903 9904 9906 9906 9908
9823 9822 9822 9821 9820 9820 9820 9820 9819 9819 9819 9819 9819 9819 9820 9820 9820 9820 9820 9821 9821 9822 9823 9824 9825 9826 9827 9829 9830 9832 9833 9834 9836 9837 9839 9840 9841 9843 9844 9845 9847 9848 9849 9850 9851 9853 9854 9855 9856 9857 9859 9860 9861 9863 9866 9868 9868 9868 9870 9873 9874 9876 9879 9881 9882 9883 9884 9885 9887 9888 9890 9892 9893 9894
9822 9822 9821 9821 9820 9820 9820 9819 9819 9819 9819 9819 9819 9819 9819 9819 9819 9819 9820 9820 9820 9820 9821 9822 9822 9823 9824 9825 9827 9828 9829 9830 9832 9833 9834 9835 9836 9837 9839 9840 9841 9842 9843 9844 9845 9846 9847 9848 9848 9849 9850 9851 9852 9854 9856 9857 9857 9858 9861 9864 9865 9866 9867 9868 9869 9870 9871 9873 9874 9876 9877 9878 9879 9882
9822 9821 9821 9820 9820 9819 9819 9819 9819 9819 9819 9819 9819 9819 9819 9819 9819 9819 9819 9819 9819 9819 9820 9820 9821 9821 9822 9823 9823 9824 9825 9826 9827 9828 9829 9830 9831 9832 9833 9834 9835 9836 9837 9837 9838 9839 9840 9840 9840 9841 9842 9843 9844 9845 9846 9847 9848 9850 9852 9853 9854 9854 9855 9856 9857 9859 9861 9862 9863 9864 9865 9866 9868 9871
9822 9821 9820 9820 9819 9819 9819 9818 9818 9818 9818 9818 9818 9818 9818 9818 9818 9818 9818 9818 9818 9819 9819 9819 9819 9820 9820 9821 9821 9822 9822 9823 9824 9824 9825 9826 9826 9827 9828 9829 9829 9830 9830 9831 9831 9832 9832 9832 9833 9833 9834 9835 9836 9837 9838 9838 9840 9842 9842 9842 9842 9843 9844 9845 9847 9848 9850 9851 9852 9853 9854 9856 9859 9860
9821 9821 9820 9819 9819 9818 9818 9818 9817 9817 9817 9817 9817 9817 9817 9816 9816 9817 9817 9817 9817 9817 9817 9818 9818 9818 9818 9819 9819 9820 9820 9820 9821 9821 9821 9821 9822 9822 9823 9823 9823 9824 9824 9824 9824 9825 9825 9825 9825 9826 9826 9827 9828 9828 9828 9830 9832 9833 9832 9832 9832 9833 9833 9835 9836 9838 9838 9839 9839 9840 9842 9846 9848 9848
9821 9820 9820 9819 9818 9818 9817 9817 9816 9816 9816 9816 9815 9815 9815 9815 9815 9815 9815 9815 9815 9815 9816 9816 9816 9816 9816 9817 9817 9817 9817 9817 9818 9818 9818 9818 9818 9818 9818 9818 9818 9818 9818 9818 9818 9818 9818 9818 9818 9818 9818 9819 9819 9819 9820 9821 9823 9823 9823 9823 9823 9823 9824 9826 9827 9826 9826 9826 9826 9828 9831 9835 9836 9835
9820 9820 9819 9818 9817 9817 9816 9816 9815 9814 9814 9814 9813 9813 9813 9813 9813 9813 9813 9813 9813 9813 9813 9813 9813 9813 9814 9814 9814 9814 9814 9814 9814 9814 9814 9814 9814 9813 9813 9813 9813 9813 9813 9812 9812 9812 9812 9811 9811 9811 9811 9811 9811 9811 9812 9813 9813 9813 9814 9814 9813 9813 9815 9815 9815 9814 9815 9814 9814 9817 9822 9824 9825 9824